Tracking 30703 objects as of 13-Jun-2025
HD Live streaming from Space Station
objects crossing your sky now

COSMOS 469

Track COSMOS 469 now!
10-day predictions
COSMOS 469 is classified as:


NORAD ID: 5721
Int'l Code: 1971-117A
Perigee: 947.1 km
Apogee: 1,022.5 km
Inclination: 64.5 °
Period: 104.6 minutes
Semi major axis: 7355 km
RCS: 2.893 m2 (large)
Launch date: December 25, 1971
Source: Commonwealth of Independent States (former USSR) (CIS)
Launch site: TYURATAM MISSILE AND SPACE COMPLEX (TTMTR)
Your satellite tracking list
Your tracking list is empty




NASA's NSSDC Master Catalog

Two Line Element Set (TLE):
1 05721U 71117A   25163.87655675 -.00000047  00000-0  44385-4 0  9998
2 05721  64.4873 230.2511 0051224 325.2353  34.5355 13.76127516686307
Source of the keplerian elements: AFSPC